• In Portugal
  • List of Countries
  • For 7 days
  • Water Temperature
  • Satellite Maps
  • Weather Map
  • Weather Widgets
  • user-avatar
    Login

    Hourly Weather Maripasoula

    Today, 21 November, Tuesday

    Time Temperature Precipitation Wind Pressure Humidity
    00:00 +26°C° 0 mm 1 mps 745 mmHg 88%
    01:00 +25°C° 0 mm 1 mps 745 mmHg 92%
    02:00 +24°C° 0 mm 1 mps 745 mmHg 96%
    03:00 +24°C° 0 mm 1 mps 745 mmHg 97%
    04:00 +23°C° 0 mm 1 mps 745 mmHg 98%
    05:00 +23°C° 0 mm 1 mps 745 mmHg 99%
    06:00 +25°C° 0 mm 1 mps 745 mmHg 89%
    07:00 +27°C° 0 mm 1 mps 745 mmHg 78%
    08:00 +28°C° 0 mm 1 mps 746 mmHg 68%
    09:00 +31°C° 0 mm 2 mps 746 mmHg 55%
    10:00 +35°C° 0 mm 2 mps 746 mmHg 43%
    11:00 +37°C° 0 mm 2 mps 745 mmHg 30%
    12:00 +38°C° 0 mm 2 mps 745 mmHg 28%
    13:00 +39°C° 0 mm 2 mps 744 mmHg 26%
    14:00 +39°C° 0 mm 2 mps 743 mmHg 24%
    15:00 +37°C° 0 mm 1 mps 743 mmHg 30%
    16:00 +35°C° 0 mm 1 mps 743 mmHg 36%
    17:00 +33°C° 0 mm 1 mps 743 mmHg 41%
    18:00 +32°C° 0 mm 1 mps 743 mmHg 47%
    19:00 +30°C° 0 mm 1 mps 744 mmHg 54%
    20:00 +29°C° 0 mm 2 mps 745 mmHg 60%
    21:00 +28°C° 0 mm 2 mps 745 mmHg 66%
    22:00 +28°C° 0 mm 2 mps 745 mmHg 72%
    23:00 +27°C° 0 mm 2 mps 746 mmHg 78%

    Tomorrow, 22 November, Wednesday

    Time Temperature Precipitation Wind Pressure Humidity
    00:00 +26°C° 0 mm 1 mps 745 mmHg 82%
    01:00 +25°C° 0 mm 1 mps 745 mmHg 86%
    02:00 +25°C° 0 mm 1 mps 744 mmHg 91%
    03:00 +24°C° 0 mm 1 mps 744 mmHg 93%
    04:00 +24°C° 0 mm 1 mps 745 mmHg 96%
    05:00 +23°C° 0 mm 1 mps 745 mmHg 98%
    06:00 +25°C° 0 mm 1 mps 745 mmHg 89%
    07:00 +27°C° 0 mm 1 mps 746 mmHg 79%
    08:00 +29°C° 0 mm 2 mps 747 mmHg 69%
    09:00 +31°C° 0 mm 2 mps 746 mmHg 57%
    10:00 +35°C° 0 mm 2 mps 746 mmHg 45%
    11:00 +37°C° 0 mm 2 mps 746 mmHg 32%
    12:00 +38°C° 0 mm 2 mps 745 mmHg 29%
    13:00 +39°C° 0 mm 2 mps 744 mmHg 26%
    14:00 +39°C° 0 mm 2 mps 742 mmHg 23%
    15:00 +37°C° 0 mm 1 mps 742 mmHg 28%
    16:00 +35°C° 0 mm 1 mps 742 mmHg 34%
    17:00 +33°C° 0 mm 1 mps 742 mmHg 39%
    18:00 +31°C° 0 mm 1 mps 743 mmHg 44%
    19:00 +30°C° 0 mm 1 mps 744 mmHg 49%
    20:00 +29°C° 0 mm 1 mps 745 mmHg 53%
    21:00 +28°C° 0 mm 1 mps 745 mmHg 60%
    22:00 +28°C° 0 mm 2 mps 745 mmHg 66%
    23:00 +27°C° 0 mm 2 mps 745 mmHg 73%

    Day after tomorrow, 23 November, Thursday

    Time Temperature Precipitation Wind Pressure Humidity
    00:00 +26°C° 0 mm 2 mps 745 mmHg 78%
    01:00 +25°C° 0 mm 1 mps 744 mmHg 83%
    02:00 +24°C° 0 mm 1 mps 744 mmHg 88%
    03:00 +24°C° 0 mm 1 mps 744 mmHg 91%
    04:00 +23°C° 0 mm 1 mps 744 mmHg 94%
    05:00 +23°C° 0 mm 1 mps 744 mmHg 97%
    06:00 +25°C° 0 mm 1 mps 745 mmHg 88%
    07:00 +26°C° 0 mm 1 mps 746 mmHg 80%
    08:00 +28°C° 0 mm 2 mps 746 mmHg 71%
    09:00 +31°C° 0 mm 2 mps 746 mmHg 60%
    10:00 +34°C° 0 mm 2 mps 746 mmHg 48%
    11:00 +37°C° 0 mm 2 mps 745 mmHg 37%
    12:00 +38°C° 0 mm 2 mps 745 mmHg 34%
    13:00 +39°C° 0 mm 2 mps 744 mmHg 31%
    14:00 +39°C° 0 mm 2 mps 743 mmHg 28%
    15:00 +37°C° 0.1 mm 2 mps 743 mmHg 36%
    16:00 +35°C° 0.1 mm 2 mps 743 mmHg 43%
    17:00 +33°C° 0.1 mm 1 mps 742 mmHg 51%
    18:00 +31°C° 0.2 mm 2 mps 743 mmHg 62%
    19:00 +29°C° 0.2 mm 2 mps 744 mmHg 72%
    20:00 +27°C° 0.2 mm 2 mps 745 mmHg 83%
    21:00 +27°C° 0 mm 2 mps 745 mmHg 83%
    22:00 +27°C° 0 mm 2 mps 745 mmHg 83%
    23:00 +26°C° 0 mm 2 mps 745 mmHg 83%

    24 November, Friday

    Time Temperature Precipitation Wind Pressure Humidity
    00:00 +26°C° 0 mm 1 mps 745 mmHg 86%
    01:00 +25°C° 0 mm 1 mps 744 mmHg 88%
    02:00 +25°C° 0 mm 1 mps 744 mmHg 91%
    03:00 +24°C° 0 mm 1 mps 744 mmHg 93%
    04:00 +24°C° 0 mm 1 mps 744 mmHg 95%
    05:00 +23°C° 0 mm 1 mps 745 mmHg 97%
    06:00 +25°C° 0 mm 1 mps 745 mmHg 88%
    07:00 +27°C° 0 mm 2 mps 746 mmHg 79%
    08:00 +29°C° 0 mm 2 mps 747 mmHg 69%
    09:00 +31°C° 0 mm 2 mps 746 mmHg 60%
    10:00 +34°C° 0 mm 2 mps 746 mmHg 52%
    11:00 +36°C° 0 mm 2 mps 746 mmHg 43%
    12:00 +37°C° 0 mm 2 mps 745 mmHg 42%
    13:00 +37°C° 0 mm 2 mps 744 mmHg 40%
    14:00 +38°C° 0 mm 2 mps 744 mmHg 39%
    15:00 +35°C° 0.2 mm 2 mps 744 mmHg 49%
    16:00 +32°C° 0.2 mm 2 mps 744 mmHg 59%
    17:00 +30°C° 0.2 mm 2 mps 744 mmHg 68%
    18:00 +29°C° 0 mm 2 mps 745 mmHg 73%
    19:00 +28°C° 0 mm 2 mps 746 mmHg 77%
    20:00 +27°C° 0 mm 2 mps 746 mmHg 81%
    21:00 +26°C° 0 mm 1 mps 746 mmHg 84%
    22:00 +26°C° 0 mm 1 mps 747 mmHg 87%
    23:00 +25°C° 0 mm 1 mps 747 mmHg 90%

    25 November, Saturday

    Time Temperature Precipitation Wind Pressure Humidity
    00:00 +25°C° 0 mm 1 mps 746 mmHg 92%
    01:00 +24°C° 0 mm 1 mps 746 mmHg 94%
    02:00 +24°C° 0 mm 1 mps 745 mmHg 97%
    03:00 +24°C° 0 mm 1 mps 746 mmHg 97%
    04:00 +24°C° 0 mm 1 mps 746 mmHg 98%
    05:00 +24°C° 0 mm 1 mps 746 mmHg 99%
    06:00 +25°C° 0 mm 1 mps 747 mmHg 93%
    07:00 +26°C° 0 mm 1 mps 747 mmHg 86%
    08:00 +28°C° 0 mm 2 mps 748 mmHg 80%
    09:00 +30°C° 0 mm 2 mps 747 mmHg 70%
    10:00 +32°C° 0 mm 2 mps 747 mmHg 60%
    11:00 +35°C° 0 mm 2 mps 746 mmHg 49%
    12:00 +36°C° 0 mm 2 mps 746 mmHg 48%
    13:00 +36°C° 0 mm 2 mps 745 mmHg 46%
    14:00 +37°C° 0 mm 2 mps 744 mmHg 44%
    15:00 +34°C° 0.4 mm 2 mps 744 mmHg 54%
    16:00 +31°C° 0.4 mm 2 mps 744 mmHg 65%
    17:00 +29°C° 0.4 mm 2 mps 745 mmHg 75%
    18:00 +28°C° 0.1 mm 2 mps 745 mmHg 78%
    19:00 +27°C° 0.1 mm 2 mps 746 mmHg 81%
    20:00 +26°C° 0.1 mm 1 mps 746 mmHg 85%
    21:00 +26°C° 0 mm 1 mps 746 mmHg 88%
    22:00 +25°C° 0 mm 1 mps 747 mmHg 91%
    23:00 +24°C° 0 mm 1 mps 747 mmHg 94%

    26 November, Sunday

    Time Temperature Precipitation Wind Pressure Humidity
    00:00 +24°C° 0 mm 1 mps 746 mmHg 96%
    01:00 +24°C° 0 mm 1 mps 746 mmHg 97%
    02:00 +22°C° 0 mm 0 mps 745 mmHg 99%
    03:00 +21°C° 0 mm 0 mps 745 mmHg 99%
    04:00 +21°C° 0 mm 0 mps 746 mmHg 99%
    05:00 +21°C° 0 mm 0 mps 746 mmHg 99%
    06:00 +25°C° 0 mm 1 mps 746 mmHg 92%
    07:00 +26°C° 0 mm 1 mps 747 mmHg 85%
    08:00 +28°C° 0 mm 1 mps 747 mmHg 78%
    09:00 +30°C° 0 mm 2 mps 747 mmHg 69%
    10:00 +32°C° 0 mm 2 mps 747 mmHg 59%
    11:00 +35°C° 0 mm 2 mps 746 mmHg 50%
    12:00 +35°C° 0.1 mm 2 mps 745 mmHg 51%
    13:00 +35°C° 0.1 mm 2 mps 744 mmHg 53%
    14:00 +35°C° 0.1 mm 2 mps 744 mmHg 55%
    15:00 +31°C° 0.9 mm 2 mps 744 mmHg 66%
    16:00 +29°C° 0.9 mm 2 mps 744 mmHg 77%
    17:00 +27°C° 0.9 mm 2 mps 744 mmHg 89%
    18:00 +26°C° 0.2 mm 1 mps 744 mmHg 91%
    19:00 +26°C° 0.2 mm 1 mps 745 mmHg 93%
    20:00 +25°C° 0.2 mm 1 mps 745 mmHg 95%
    21:00 +25°C° 0 mm 1 mps 745 mmHg 96%
    22:00 +25°C° 0 mm 1 mps 745 mmHg 97%
    23:00 +24°C° 0 mm 1 mps 746 mmHg 97%
    Show more